RH
96 88 77 68 58 51 50 55 45 40 34 22 26 28 27 26 17 17 22 9 6 5 6 4 3 3 2 2 2 2 2 3 5 5 5 8 10 12 16 16 17 18 18 23 25 24 41
99 71 46 34 33 31 32 39 38 40 30 24 30 29 31 30 20 16 21 14 7 6 7 5 3 3 3 2 2 3 3 4 5 5 5 8 10 12 15 17 16 20 20 23 26 24 30
55 42 54 46 36 31 30 31 32 38 25 25 31 33 35 34 25 17 17 20 9 7 7 7 4 4 3 3 3 3 4 5 6 6 5 7 10 11 14 16 16 21 21 24 25 25 33
53 47 50 48 36 28 29 29 33 28 24 29 34 42 39 39 29 20 16 25 14 8 9 9 4 4 3 3 3 3 5 6 6 6 6 8 10 11 13 15 15 20 22 20 26 27 32
54 48 45 47 41 24 25 28 28 27 25 31 37 42 44 46 33 24 17 21 23 11 10 12 6 5 5 3 3 5 7 8 6 6 6 8 10 11 12 14 15 19 22 20 25 30 34
54 54 50 42 45 26 23 34 30 29 27 29 31 36 46 49 38 28 20 18 26 18 10 15 14 5 5 5 4 5 7 9 6 6 7 8 10 11 13 14 14 19 21 21 29 31 33
71 68 59 51 45 36 27 33 30 29 28 28 28 32 42 51 49 33 25 19 19 28 17 12 15 12 4 8 6 7 8 8 10 8 9 10 11 12 14 16 15 18 23 22 29 33 33
84 81 69 53 44 41 34 32 34 26 26 28 28 30 36 46 54 38 30 24 20 23 26 16 10 15 11 6 7 8 8 8 8 10 10 11 13 14 15 18 15 18 22 23 26 36 34
94 83 72 52 43 45 41 33 31 27 25 26 27 31 32 34 55 51 30 30 25 22 22 24 15 15 14 12 9 8 10 8 9 11 10 12 15 16 18 20 16 19 22 22 23 36 36
91 80 60 54 46 49 43 39 34 31 24 24 26 26 31 32 39 60 42 32 29 27 24 23 26 16 18 20 8 9 9 10 11 12 11 12 15 18 22 24 18 20 23 23 23 28 38
100 76 55 55 48 50 46 46 38 33 32 25 23 25 28 30 31 56 56 40 34 30 27 28 24 28 17 16 16 11 10 10 14 14 12 13 14 18 24 24 21 19 23 23 25 33 34
100 69 67 70 50 49 45 47 49 38 33 29 27 27 25 28 29 33 61 54 42 36 32 27 31 25 31 20 18 15 12 12 11 13 12 12 18 21 27 26 30 24 24 22 23 29 35
100 83 80 76 73 60 49 47 54 49 42 38 36 33 27 26 28 26 44 66 57 46 37 30 28 26 26 32 18 14 11 13 14 11 11 13 16 24 26 27 29 27 23 22 23 26 33
100 84 78 59 99 73 63 51 47 55 59 57 51 47 36 32 31 28 28 56 69 71 61 48 33 33 26 26 29 19 16 12 14 14 13 13 16 20 26 30 29 30 30 29 27 32 38
100 82 81 70 100 99 70 68 54 55 74 65 65 60 56 49 38 34 29 35 56 79 81 75 60 34 40 29 27 26 22 17 14 14 14 16 16 21 26 29 27 29 38 35 30 27 30
84 79 100 82 93 100 85 67 67 57 78 69 60 62 63 60 60 53 47 40 55 63 70 81 71 73 39 42 37 33 27 27 18 17 15 18 19 18 26 29 27 27 31 35 34 35 34
92 82 86 89 77 90 100 72 66 72 65 100 66 60 63 71 72 58 58 72 75 73 72 83 84 68 66 51 43 46 39 32 32 24 20 18 20 22 21 25 27 28 28 29 32 34 34
100 81 81 90 96 100 100 82 73 80 88 96 99 77 72 68 68 55 65 74 86 81 77 70 78 92 91 84 68 52 47 48 32 31 35 26 21 22 28 26 26 30 29 32 34 33 33
100 81 73 77 99 100 100 82 78 91 77 86 95 75 84 63 58 78 58 58 64 84 100 91 71 72 78 81 92 90 74 60 57 42 36 30 37 32 24 27 31 32 31 30 31 30 34
76 74 76 58 54 60 74 98 86 95 92 82 91 100 86 100 100 83 68 74 90 68 56 88 100 88 79 99 86 78 70 86 94 87 52 42 36 29 30 35 32 28 30 34 34 36 37
96 90 80 78 65 69 85 86 97 86 80 87 94 98 100 96 100 100 100 97 88 80 88 77 77 94 100 78 92 96 90 68 64 61 93 98 66 49 40 36 32 33 36 36 34 35 38
100 93 81 79 67 72 77 78 88 87 68 71 97 82 86 94 94 94 100 100 100 88 100 100 100 92 63 74 99 78 77 95 83 72 66 67 68 93 70 57 52 43 40 31 34 36 32
94 83 78 97 95 80 72 71 75 89 98 100 99 100 100 100 100 100 100 100 100 100 100 94 94 92 100 100 90 81 86 96 67 78 87 90 85 60 78 100 99 91 61 52 47 44 40
70 79 76 81 66 74 79 72 77 72 78 94 99 100 96 88 83 92 100 100 100 100 100 100 100 95 86 91 100 98 93 85 95 100 92 86 84 94 97 88 79 68 68 71 97 100 78
69 64 64 72 65 63 66 68 74 94 89 86 100 100 100 100 100 84 84 82 88 87 83 82 89 100 99 86 84 100 100 91 83 89 82 85 93 77 98 100 100 100 100 99 99 93 77
89 81 68 62 59 58 68 60 50 55 70 93 100 100 98 94 100 100 99 93 87 88 87 81 89 81 71 81 99 100 95 96 95 98 100 91 80 74 81 69 64 63 75 92 99 100 100
100 98 76 70 72 66 60 63 65 52 57 66 74 83 90 95 100 100 100 95 88 82 74 69 66 75 83 81 78 74 89 94 98 92 81 74 68 97 100 93 96 90 83 66 60 66 74
100 100 100 86 70 76 68 75 75 69 61 66 71 84 100 100 100 100 100 100 100 100 100 100 96 93 72 59 58 73 77 86 82 72 71 74 60 60 60 55 65 79 78 75 70 68 62
65 82 96 100 81 79 78 81 80 83 77 86 89 92 100 99 100 100 100 100 100 100 100 100 100 100 100 93 75 72 75 75 70 74 92 94 69 69 70 70 68 58 49 46 53 60 60
Wind_Speed
30 34 41 47 51 50 43 38 37 34 35 39 45 54 66 78 87 92 88 75 62 54 46 35 26 17 10 11 19 28 40 53 68 81 93 101 106 112 108 97 88 83 78 75 71 64 61
33 41 44 43 40 38 35 31 30 30 31 37 44 53 65 76 86 94 88 83 66 59 50 41 30 20 7 5 15 24 35 49 63 78 87 101 108 113 110 100 92 88 83 78 73 66 64
33 27 30 35 35 31 27 23 20 22 29 36 43 54 63 73 84 92 94 90 74 63 57 42 31 21 11 4 10 21 32 46 59 73 88 100 106 111 110 104 97 91 86 81 75 69 65
18 26 34 40 40 32 21 17 11 19 29 36 42 53 61 70 80 92 98 94 84 69 60 50 34 26 16 6 11 20 30 43 58 71 86 96 104 108 109 104 99 94 88 83 75 69 66
20 26 34 40 43 31 18 13 15 20 29 36 42 50 58 66 76 87 95 95 92 75 62 56 45 30 22 12 14 21 27 39 53 65 77 92 102 104 106 104 100 94 86 81 76 70 66
22 30 35 39 44 32 18 16 18 20 27 35 41 47 55 62 70 80 89 98 97 86 69 57 50 39 26 16 15 20 26 30 39 45 59 85 96 100 100 100 98 90 85 81 75 72 69
21 29 35 38 39 40 21 18 18 21 26 32 39 45 51 56 64 73 83 92 100 96 78 63 52 48 35 22 11 18 20 24 31 37 54 75 91 92 94 93 96 90 85 82 78 75 73
20 28 33 37 38 38 32 22 20 21 23 29 35 42 47 53 59 68 77 87 93 95 91 69 58 49 43 30 17 13 20 23 35 40 55 72 89 91 90 90 92 90 86 83 80 78 75
19 28 30 32 35 37 36 29 23 21 23 27 32 37 43 50 54 61 69 77 84 91 94 87 64 54 45 38 21 14 13 23 31 37 53 73 87 90 89 87 88 88 85 84 81 79 77
21 25 25 29 33 34 36 36 28 22 23 27 29 33 38 46 50 55 61 68 76 83 90 92 86 63 48 40 31 16 14 19 31 41 50 66 84 87 86 85 86 85 84 84 80 79 77
22 20 22 26 30 32 34 33 34 27 22 25 29 30 34 40 46 50 55 61 68 74 82 87 90 84 59 44 35 23 15 20 26 39 51 68 81 85 85 83 84 86 85 83 81 78 77
19 18 18 22 26 30 33 31 31 32 26 24 27 31 32 36 41 45 49 53 59 66 72 76 82 87 82 62 39 29 15 18 25 29 41 62 78 83 85 83 83 83 83 81 79 78 76
20 18 17 20 21 25 30 32 32 31 32 28 25 28 31 33 36 40 43 46 53 57 63 69 74 80 82 80 61 34 24 13 18 23 32 51 72 80 82 81 80 80 80 79 76 74 71
20 19 17 19 17 21 26 29 31 30 31 32 30 28 28 31 33 35 38 41 44 49 55 60 65 71 76 81 80 61 33 23 13 14 22 44 65 75 78 82 77 79 78 76 73 70 68
22 23 22 16 15 18 23 26 28 26 26 28 30 31 30 31 31 33 36 37 40 41 46 51 57 60 66 71 76 78 64 32 22 12 14 29 55 69 73 76 76 77 77 75 72 70 69
30 23 20 19 16 21 22 25 27 23 22 23 26 28 30 31 32 33 35 36 38 38 40 44 48 52 55 61 64 69 71 65 37 21 11 16 40 60 69 73 70 69 71 71 70 69 67
29 25 24 25 23 22 22 26 25 20 21 19 21 22 25 28 27 28 31 36 37 36 37 40 41 44 47 50 53 58 62 62 63 45 24 12 17 42 58 65 67 66 64 64 65 64 65
28 28 25 24 22 24 24 24 21 21 21 19 19 20 20 22 24 26 27 29 33 36 36 36 37 37 38 42 45 47 49 53 54 55 53 33 13 15 34 47 57 60 61 60 59 59 60
30 25 24 26 24 25 25 24 22 20 22 20 24 23 21 22 22 23 24 27 28 29 31 34 35 37 37 34 35 37 40 40 42 43 44 44 41 27 4 25 42 49 56 58 59 59 59
30 29 26 26 25 25 26 25 20 19 22 21 22 22 21 19 21 21 21 23 25 27 27 29 29 30 31 34 32 30 29 31 33 33 34 33 33 33 30 22 7 20 41 51 55 56 59
34 33 31 28 27 26 23 24 23 24 24 23 24 22 21 21 22 25 25 25 24 24 24 24 24 25 23 24 24 27 27 25 24 24 25 25 23 21 20 20 18 16 9 2 12 26 38
39 38 37 33 33 32 30 29 28 25 23 22 24 24 22 24 25 29 28 28 27 26 26 26 27 26 25 24 21 21 18 18 19 16 18 16 14 14 12 11 9 8 6 3 6 6 8
45 43 41 39 39 38 38 38 36 33 29 26 25 26 27 28 28 29 30 29 30 29 31 31 30 29 28 25 26 26 23 20 20 19 15 15 13 11 8 12 14 12 12 16 15 17 19
51 49 46 45 43 43 44 44 45 43 37 34 34 34 34 34 34 34 34 33 33 34 34 35 35 37 36 33 32 33 32 30 27 22 21 21 18 17 18 17 21 23 24 23 27 30 31
61 55 52 51 51 46 46 45 46 48 45 43 43 40 40 42 43 42 43 43 44 45 44 42 40 38 37 39 38 36 36 38 38 33 33 31 26 29 28 26 29 32 34 37 38 40 40
68 65 60 56 53 53 52 51 48 47 48 50 49 47 45 43 45 44 43 45 47 48 50 52 52 49 45 40 38 42 42 42 40 39 36 39 41 40 38 40 44 45 42 40 43 47 53
71 69 67 65 63 58 58 60 58 59 56 55 55 53 51 51 52 50 50 51 51 53 55 56 55 55 55 50 48 48 47 48 47 48 51 50 50 48 48 50 50 53 53 56 58 57 57
75 76 76 73 69 68 64 65 66 63 62 62 57 56 56 57 60 58 57 57 57 58 58 58 59 61 62 63 61 60 56 58 60 60 60 61 62 63 65 63 61 62 64 68 70 73 75
87 84 84 83 81 75 73 70 71 75 72 71 69 65 64 63 61 64 64 64 63 62 64 63 63 62 62 65 66 65 63 65 66 67 68 68 68 69 73 76 78 78 78 79 79 81 83
Wind_Direction
310 310 307 307 304 304 305 305 308 316 323 335 341 345 353 0 0 4 2 1 360 0 2 359 353 343 296 249 220 212 206 203 202 202 202 199 201 202 204 206 207 207 211 215 217 217 218
311 314 313 314 317 314 308 303 307 322 331 342 344 349 358 2 2 6 8 8 7 10 11 8 8 3 332 221 205 201 199 197 199 200 200 197 198 201 201 203 205 206 209 213 214 215 217
320 333 353 354 344 330 320 312 317 332 341 348 349 354 0 4 3 7 12 12 12 13 18 16 11 16 12 135 180 188 190 190 196 198 199 197 197 198 200 202 205 206 208 211 212 214 217
339 352 2 5 359 350 337 336 358 347 348 351 353 355 359 7 6 10 13 15 16 15 19 20 25 26 32 101 148 172 179 188 195 195 198 194 195 198 200 201 205 205 207 211 211 214 217
354 359 0 6 6 1 1 12 359 356 354 355 357 357 359 7 9 11 15 18 19 18 19 23 26 31 33 72 132 149 171 189 198 199 196 192 193 196 199 202 205 206 206 210 211 213 216
357 1 3 4 6 4 12 7 359 357 353 359 1 1 2 9 13 14 15 19 21 20 23 28 25 31 30 61 120 139 161 187 194 197 196 192 194 195 197 202 205 205 206 208 211 213 217
356 357 359 360 4 8 1 0 357 354 356 360 3 5 6 12 15 17 17 20 25 22 22 27 31 29 35 42 92 132 149 172 182 181 189 193 192 194 196 199 203 204 203 207 209 214 218
351 356 352 358 1 6 7 355 353 350 354 359 5 7 10 14 16 20 20 22 25 27 25 25 30 38 35 36 59 115 149 161 172 178 182 188 190 193 196 198 202 204 204 206 210 213 218
343 349 349 356 359 4 6 3 350 349 354 359 5 10 10 14 16 22 24 23 27 27 29 29 30 31 38 38 46 98 131 154 163 174 180 183 189 192 196 198 202 204 205 208 210 213 218
339 346 353 359 0 2 5 5 360 352 355 359 7 9 13 14 15 21 28 26 28 29 28 32 32 32 33 42 40 70 117 148 162 169 179 184 186 192 196 197 201 204 206 209 213 216 219
328 335 351 356 360 1 2 5 6 0 359 360 6 7 14 15 15 20 26 29 30 30 32 32 33 34 35 38 46 55 100 146 164 175 177 183 187 191 196 198 202 204 207 209 212 215 221
327 341 345 351 359 1 2 3 6 9 5 7 7 10 12 13 15 17 26 28 33 32 33 36 35 34 34 35 41 47 70 141 165 178 182 185 186 192 194 198 202 206 208 211 214 217 220
311 326 335 341 345 356 357 1 6 9 14 8 9 11 10 14 11 14 22 29 33 35 35 37 36 37 36 37 38 46 60 111 150 177 184 188 186 191 196 199 202 208 211 214 217 220 223
290 312 319 328 332 348 352 352 358 5 12 16 18 17 15 16 16 14 17 26 32 34 37 37 37 37 39 38 39 42 52 65 126 154 189 187 189 191 196 200 205 209 213 216 219 223 228
287 307 309 311 319 340 338 341 346 357 8 10 13 16 18 22 21 21 17 20 27 32 34 37 39 41 39 42 44 42 44 49 64 132 154 193 195 194 198 202 206 210 213 217 222 226 229
283 292 292 293 302 320 321 327 333 342 354 1 5 11 11 14 23 26 24 22 24 27 30 34 38 38 42 42 43 45 42 45 50 66 104 171 200 201 201 205 209 212 216 220 224 228 233
277 285 287 289 294 298 304 313 320 327 336 346 353 0 8 15 20 26 27 26 26 27 29 29 31 34 38 42 43 43 46 48 47 52 61 82 177 207 211 211 215 219 222 224 227 231 236
270 279 283 287 288 290 299 307 311 317 322 325 337 346 354 3 8 15 26 27 24 23 25 25 29 33 33 35 38 43 46 48 52 56 53 56 76 179 213 225 225 228 230 232 235 238 240
264 271 278 284 281 285 286 295 302 303 307 316 316 322 334 343 355 2 7 11 16 22 23 20 20 23 29 31 36 38 40 43 46 51 55 61 60 60 131 217 225 232 237 242 244 245 249
265 268 272 283 293 296 292 289 290 291 298 300 309 311 313 334 341 343 349 355 0 2 8 16 18 18 20 28 27 27 34 36 36 38 46 47 57 69 70 64 78 232 237 239 242 244 251
258 264 274 280 288 292 298 292 284 290 296 304 305 304 301 309 316 322 325 329 336 342 348 353 1 6 8 8 17 24 19 20 29 31 28 30 35 41 54 59 79 89 87 145 238 246 251
261 266 269 275 282 287 289 290 291 294 298 299 305 305 307 307 310 318 319 321 325 326 333 338 339 340 345 350 354 357 3 4 6 12 10 12 21 16 7 14 23 5 5 166 177 208 240
261 263 268 270 277 281 286 287 288 291 288 287 290 298 301 304 309 309 312 312 314 316 319 321 325 328 331 330 328 331 334 336 335 333 335 335 331 320 313 309 304 298 298 298 288 279 278
259 262 265 270 273 276 283 286 288 289 287 286 288 288 291 293 296 297 298 299 301 304 305 308 310 312 315 317 318 318 318 316 313 305 305 308 303 290 285 280 280 286 283 274 275 278 273
259 261 265 266 270 272 277 280 282 284 287 287 288 290 290 292 298 302 298 294 295 298 301 304 306 305 301 305 306 303 302 304 303 298 295 292 286 287 283 278 278 277 274 277 280 279 275
257 262 266 266 270 273 269 280 280 280 280 283 284 286 284 287 290 291 296 296 296 294 295 297 300 300 297 295 295 294 290 291 289 287 280 285 286 281 276 278 280 282 282 277 278 280 280
256 259 261 266 269 272 274 281 283 280 281 281 282 281 283 282 285 288 287 290 292 294 297 297 295 293 293 292 290 291 285 282 278 280 281 280 279 274 274 274 273 274 272 273 276 279 279
255 260 261 263 266 269 273 275 277 279 279 280 279 282 281 282 283 285 285 287 289 291 291 291 291 292 293 291 290 287 286 282 283 283 280 277 281 280 279 275 272 273 275 277 277 276 275
253 258 258 262 262 268 271 272 279 277 276 275 277 277 279 280 281 283 282 283 285 289 291 289 288 287 286 284 286 288 287 283 281 281 280 280 281 278 276 276 277 278 277 277 275 277 277